Flag for Canada Weather past 2 weeks in Medicine Hat, Alberta, Canada

Now
54 °F

Mostly cloudy.


Feels Like: 51 °F
Forecast: 52 / 59 °F
Wind: 9 mph from Southeast

Location: Medicine Hat

Current Time: Sep 3, 2015 at 5:30:34 AM

Latest Report: Sep 3, 2015 at 5:04 AM


Visibility: 9 mi

Pressure: 29.80 "Hg (27.53 "Hg at 661m altitude)

Humidity: 82%

Dew point: 48 °F

Location of Medicine HatLocation

Historic Weather in Medicine Hat — Graph

°F

Medicine Hat temperature yesterday

Maximum temperature yesterday: 84 °F (at 2:00 PM)
Minimum temperature yesterday: 54 °F (at 2:00 AM)
Average temperature yesterday: 66 °F

Past Weeks' High & Low Weather Summary

 TemperatureHumidityPressure
High91 °F (Aug 29, 2:00 PM)100% (Aug 21, 9:00 PM)30.22 "Hg (Aug 21, 9:00 PM)
Low37 °F (Aug 23, 6:00 AM)15% (Aug 24, 4:00 PM)29.57 "Hg (Aug 29, 7:00 PM)
Average66 °F50%29.83 "Hg
* Reported Aug 19 4:00 AM — Sep 3 4:00 AM, Medicine Hat, Weather by CustomWeather, © 2015

Note: Actual official high and low records may vary slightly from our data, if they occured in-between our weather recording intervals... More about our weather records

Advertising

Medicine Hat weather history for previous 24 hours

 ConditionsComfort  
Time TempWeatherWind HumidityBarometerVisibility
4:00 AM
Thu, Sep 3
55 °FOvercast.9 mph72%29.83 "Hg9 mi
3:00 AM52 °FPassing clouds.5 mph77%29.82 "Hg9 mi
2:00 AM54 °FPassing clouds.8 mph72%29.79 "Hg9 mi
1:00 AM54 °FPassing clouds.3 mph72%29.80 "Hg9 mi
12:00 AM59 °FPassing clouds.3 mph59%29.80 "Hg9 mi
11:00 PM
Wed, Sep 2
59 °FClear.6 mph59%29.80 "Hg9 mi
10:00 PM63 °FClear.10 mph45%29.80 "Hg9 mi
9:00 PM68 °FPartly sunny.17 mph28%29.77 "Hg15 mi
8:00 PM70 °FBroken clouds.20 mph29%29.71 "Hg30 mi
7:00 PM73 °FBroken clouds.15 mph27%29.69 "Hg30 mi
6:00 PM77 °FBroken clouds.14 mph22%29.66 "Hg30 mi
5:00 PM81 °FBroken clouds.25 mph17%29.63 "Hg30 mi
4:00 PM84 °FPartly sunny.32 mph16%29.61 "Hg30 mi
3:00 PM84 °FPartly sunny.28 mph16%29.59 "Hg30 mi
2:00 PM84 °FOvercast.13 mph16%29.59 "Hg30 mi
1:00 PM79 °FOvercast.12 mph20%29.60 "Hg30 mi
12:00 PM77 °FOvercast.13 mph24%29.61 "Hg30 mi
11:00 AM72 °FHigh level clouds.6 mph33%29.62 "Hg30 mi
10:00 AM66 °FHigh level clouds.2 mph40%29.62 "Hg30 mi
9:00 AM63 °FOvercast.5 mph42%29.62 "Hg30 mi
8:00 AM57 °FMore clouds than sun.No wind51%29.63 "Hg30 mi
7:00 AM54 °FMostly cloudy.5 mph58%29.62 "Hg30 mi
6:00 AM54 °FPassing clouds.2 mph54%29.62 "Hg9 mi
5:00 AM54 °FPassing clouds.3 mph54%29.63 "Hg9 mi
Weather by CustomWeather, © 2015

See weather overviewHow to use our weather pages